[[{"header":{"parameterUnit":"m.s-1","parameterCategory":1,"la1":30.2991,"la2":30.254,"lo1":-89.0895,"lo2":-89.0444,"dy":0.0017,"dx":0.0017,"nx":28,"ny":28,"refTime":"2024-02-14T03:00:00:Z","depth":0,"parameterNumber":2,"parameterNumberName":"U-component_of_WINDS"},"data":[0,0,0,0,0,0,0,0,0,0,0,0,0,0,0,0,0,0,0,0,0,0,0,0,0,0,0,0,0,0,0,0,0,0,0,0,0,0,0,0,0,0,0,0,0,0,0,0,0,0,0,0,0,0,0,0,0,0,-0.082,-0.082,0,-0.0802,-0.0802,-0.0802,-0.0787,-0.0787,-0.0787,-0.0787,-0.0768,-0.0768,-0.0767,0,0,0,0,0,0,0,0,0,0,0,0,0,-0.0841,-0.0841,-0.082,-0.082,-0.0819,-0.0802,-0.0802,-0.0802,-0.0787,-0.0787,-0.0787,-0.0787,-0.0768,-0.0768,-0.0767,0,0,0,0,0,0,0,0,0,0,0,0,0,-0.0829,-0.0841,-0.082,-0.081,-0.0809,-0.0802,-0.0802,-0.0802,-0.0787,-0.0787,-0.0787,-0.0787,-0.0768,-0.0768,-0.0767,-0.0768,0,0,-0.0765,-0.0765,0,0,0,0,0,0,0,0,-0.0829,-0.0828,-0.0812,-0.0811,-0.081,-0.0797,-0.0803,-0.079,-0.0787,-0.0795,-0.0787,-0.0786,-0.0778,-0.0776,-0.0773,-0.0767,-0.0767,-0.0765,-0.0765,-0.0765,-0.0765,0,0,0,0,0,0,0,-0.083,-0.0829,-0.0813,-0.0812,-0.081,-0.0807,-0.0805,-0.08,-0.0788,-0.0795,-0.0794,-0.0792,-0.0777,-0.0774,-0.0773,-0.0766,-0.0765,-0.0765,-0.0765,-0.0764,-0.0762,-0.0762,0,0,0,0,0,0,-0.0833,-0.0829,-0.0813,-0.0812,-0.0819,-0.0807,-0.0804,-0.0801,-0.0788,-0.0786,-0.0792,-0.0791,-0.0775,-0.0773,-0.0772,-0.0773,-0.0765,-0.0764,-0.0764,-0.0762,-0.0762,-0.0762,0,0,0,0,0,0,-0.0833,-0.0831,-0.0814,-0.0821,-0.0818,-0.0806,-0.0803,-0.0801,-0.0798,-0.0786,-0.0784,-0.0791,-0.0775,-0.0773,-0.077,-0.0773,-0.0764,-0.0764,-0.0761,-0.0762,-0.0762,-0.0776,0,0,0,0,0,0,-0.0834,-0.0832,-0.0832,-0.0821,-0.0818,-0.0812,-0.0803,-0.0801,-0.0797,-0.0796,-0.0785,-0.0783,-0.0774,-0.0771,-0.0769,-0.0772,-0.0763,-0.0761,-0.0762,-0.0762,-0.0775,-0.0777,-0.0778,0,0,0,0,0,-0.0835,-0.0836,-0.0832,-0.083,-0.0818,-0.0812,-0.081,-0.0801,-0.0797,-0.0797,-0.079,-0.0783,-0.0773,-0.077,-0.0769,-0.0771,-0.0761,-0.0761,-0.0762,-0.0774,-0.0776,-0.0778,0,0,0,0,0,0,-0.0847,-0.0834,-0.083,-0.0827,-0.0821,-0.081,-0.0809,-0.0803,-0.0798,-0.0797,-0.0786,-0.0783,-0.0782,-0.0776,-0.0774,-0.0772,-0.0766,-0.0766,-0.0776,-0.0778,-0.0779,-0.078,-0.0763,0,0,0,0,0,-0.085,-0.0846,-0.0835,-0.0834,-0.0831,-0.0821,-0.0818,-0.0812,-0.0805,-0.0802,-0.0794,-0.0787,-0.0783,-0.078,-0.0775,-0.0774,-0.0772,-0.0775,-0.0777,-0.0778,-0.0778,-0.0779,-0.078,-0.0764,-0.0764,-0.0764,0,0,-0.0855,-0.0847,-0.0846,-0.0837,-0.0831,-0.0828,-0.0819,-0.0815,-0.0813,-0.0801,-0.0798,-0.0792,-0.0784,-0.0783,-0.0782,-0.0778,-0.0783,-0.0779,-0.078,-0.0779,-0.0779,-0.0781,-0.0782,-0.0765,-0.0765,-0.0764,0,0,-0.0862,-0.0856,-0.0855,-0.085,-0.0842,-0.0835,-0.0835,-0.0825,-0.0821,-0.0818,-0.0809,-0.0806,-0.0798,-0.0793,-0.079,-0.0797,-0.0791,-0.0796,-0.0803,-0.0804,-0.0805,-0.0806,-0.0809,-0.0811,-0.0796,-0.0796,-0.0796,0,-0.087,-0.0864,-0.0855,-0.0853,-0.085,-0.084,-0.0839,-0.0834,-0.0825,-0.0823,-0.0819,-0.081,-0.0803,-0.0801,-0.0803,-0.08,-0.08,-0.0797,-0.0806,-0.0807,-0.0808,-0.0811,-0.0812,-0.0797,-0.0797,-0.0797,-0.0797,0,-0.0874,-0.0871,-0.0871,-0.0863,-0.086,-0.0858,-0.0849,-0.0847,-0.0841,-0.0835,-0.0833,-0.0825,-0.0819,-0.0818,-0.0812,-0.0815,-0.0813,-0.0808,-0.0801,-0.081,-0.0813,-0.0814,-0.0798,-0.0798,-0.0798,-0.0797,0,0,-0.0888,-0.0876,-0.0876,-0.0873,-0.0864,-0.0861,-0.086,-0.0854,-0.0853,-0.0847,-0.0846,-0.084,-0.0835,-0.0831,-0.0825,-0.0825,-0.0833,-0.082,-0.082,-0.0823,-0.0837,-0.0841,-0.0842,-0.0829,-0.0829,-0.0829,-0.0838,0,-0.0894,-0.0891,-0.0883,-0.0882,-0.088,-0.0871,-0.087,-0.0864,-0.0859,-0.0856,-0.085,-0.0847,-0.0841,-0.0838,-0.0838,-0.0832,-0.0835,-0.0831,-0.0828,-0.0828,-0.083,-0.0844,-0.0848,-0.0856,-0.0838,-0.0839,-0.0839,0,-0.0901,-0.0897,-0.0896,-0.0888,-0.0886,-0.0885,-0.088,-0.0878,-0.0872,-0.0868,-0.0864,-0.0858,-0.0856,-0.085,-0.0848,-0.0846,-0.0844,-0.0841,-0.0841,-0.084,-0.0834,-0.0843,-0.0858,-0.086,-0.084,-0.084,-0.084,0,-0.0912,-0.0906,-0.0904,-0.0902,-0.0893,-0.0892,-0.0889,-0.0882,-0.088,-0.0876,-0.0874,-0.087,-0.0867,-0.0864,-0.0857,-0.0853,-0.0856,-0.0849,-0.0853,-0.0853,-0.0854,-0.0854,-0.0869,-0.0853,-0.0853,-0.0853,-0.0852,0,-0.092,-0.0919,-0.0909,-0.0909,-0.0909,-0.09,-0.0901,-0.0896,-0.0891,-0.0889,-0.0881,-0.088,-0.0871,-0.0869,-0.0863,-0.0863,-0.0861,-0.0859,-0.0857,-0.0859,-0.086,-0.0858,-0.0857,-0.0853,-0.0853,-0.0853,-0.0853,0,-0.0931,-0.0925,-0.0923,-0.0915,-0.0913,-0.0913,-0.0907,-0.0906,-0.0901,-0.0899,-0.0898,-0.089,-0.0887,-0.088,-0.0875,-0.0871,-0.0873,-0.087,-0.0875,-0.0874,-0.0878,-0.0878,-0.0893,-0.0895,-0.0877,-0.0877,-0.0877,0,-0.0937,-0.0937,-0.0929,-0.0928,-0.0925,-0.0922,-0.092,-0.0913,-0.0911,-0.0905,-0.0905,-0.0902,-0.0899,-0.0895,-0.0889,-0.0885,-0.0882,-0.0888,-0.0882,-0.0884,-0.0883,-0.0883,-0.0883,-0.0889,-0.0889,-0.0889,-0.0889,0,-0.0948,-0.0945,-0.0942,-0.0938,-0.0936,-0.0933,-0.0929,-0.0929,-0.092,-0.0918,-0.0916,-0.0914,-0.0909,-0.0907,-0.0902,-0.0899,-0.0893,-0.0892,-0.0892,-0.0895,-0.0898,-0.0897,-0.0879,-0.0891,-0.0891,-0.0891,-0.0891,-0.0891,-0.0957,-0.0956,-0.0951,-0.0949,-0.0946,-0.0943,-0.0942,-0.0937,-0.0935,-0.0931,-0.0927,-0.0925,-0.092,-0.0914,-0.0911,-0.091,-0.0907,-0.0908,-0.0908,-0.0908,-0.091,-0.0898,-0.0909,-0.0909,-0.0909,-0.0909,-0.0909,0,-0.0967,-0.0964,-0.0962,-0.0957,-0.0956,-0.0951,-0.0947,-0.0946,-0.0945,-0.0941,-0.0938,-0.0936,-0.0934,-0.0928,-0.0925,-0.0925,-0.0922,-0.0925,-0.0924,-0.0924,-0.0912,-0.0912,-0.0927,-0.0927,-0.0927,-0.0927,-0.0927,-0.0927,-0.0973,-0.0972,-0.0969,-0.0968,-0.0964,-0.0963,-0.0961,-0.0958,-0.0955,-0.0953,-0.0952,-0.0948,-0.0943,-0.0941,-0.0938,-0.0937,-0.0936,-0.0939,-0.0937,-0.0926,-0.0925,-0.0923,-0.0923,-0.0939,-0.0939,-0.0949,-0.0949,-0.0949]},{"header":{"parameterUnit":"m.s-1","parameterCategory":1,"la1":30.2991,"la2":30.254,"lo1":-89.0895,"lo2":-89.0444,"dy":0.0017,"dx":0.0017,"nx":28,"ny":28,"refTime":"2024-02-14T03:00:00:Z","depth":0,"parameterNumber":3,"parameterNumberName":"V-component_of_WINDS"},"data":[0,0,0,0,0,0,0,0,0,0,0,0,0,0,0,0,0,0,0,0,0,0,0,0,0,0,0,0,0,0,0,0,0,0,0,0,0,0,0,0,0,0,0,0,0,0,0,0,0,0,0,0,0,0,0,0,0,0,1.8177,1.8177,0,1.8172,1.8171,1.8171,1.8203,1.8204,1.8205,1.8206,1.8194,1.8193,1.8192,0,0,0,0,0,0,0,0,0,0,0,0,0,1.8211,1.8211,1.8177,1.8177,1.8177,1.8172,1.8171,1.8171,1.8203,1.8204,1.8205,1.8206,1.8195,1.8193,1.8192,0,0,0,0,0,0,0,0,0,0,0,0,0,1.82,1.821,1.8177,1.8192,1.8194,1.8172,1.8171,1.8171,1.8202,1.8204,1.8205,1.8206,1.8195,1.8193,1.8192,1.8153,0,0,1.8186,1.8186,0,0,0,0,0,0,0,0,1.8201,1.8199,1.819,1.8191,1.8193,1.819,1.8179,1.8165,1.8202,1.8199,1.8206,1.8207,1.8191,1.819,1.8186,1.8153,1.8152,1.8186,1.8185,1.8184,1.8184,0,0,0,0,0,0,0,1.8201,1.8199,1.8175,1.819,1.8192,1.8198,1.8198,1.8177,1.8187,1.8199,1.8202,1.8201,1.8192,1.8187,1.8185,1.8152,1.8186,1.8185,1.8184,1.8183,1.8088,1.8087,0,0,0,0,0,0,1.8201,1.82,1.8175,1.8175,1.82,1.8196,1.8196,1.8189,1.8188,1.8189,1.82,1.8202,1.8189,1.8187,1.8185,1.814,1.8184,1.8183,1.8182,1.8089,1.8088,1.8086,0,0,0,0,0,0,1.8202,1.8198,1.8175,1.8188,1.8185,1.8194,1.8186,1.8188,1.8183,1.8188,1.8189,1.8193,1.819,1.8188,1.8162,1.814,1.8182,1.818,1.8091,1.8089,1.8087,1.805,0,0,0,0,0,0,1.8202,1.8198,1.8185,1.8187,1.8185,1.8153,1.8185,1.8187,1.8181,1.8184,1.8182,1.8183,1.8191,1.8164,1.816,1.8139,1.8179,1.8093,1.809,1.8088,1.8053,1.8047,1.8042,0,0,0,0,0,1.8203,1.8174,1.8184,1.8181,1.8168,1.8152,1.815,1.8162,1.8179,1.8165,1.8168,1.8183,1.8144,1.8161,1.8157,1.8135,1.8094,1.8091,1.8088,1.8056,1.8048,1.8042,0,0,0,0,0,0,1.8166,1.8174,1.8186,1.8156,1.8153,1.8157,1.8139,1.8153,1.8144,1.8147,1.8161,1.816,1.8131,1.813,1.815,1.8098,1.8122,1.8117,1.8099,1.8092,1.8086,1.8087,1.8178,0,0,0,0,0,1.8155,1.8143,1.8149,1.8123,1.8121,1.813,1.8124,1.8133,1.813,1.8128,1.8129,1.8124,1.8111,1.8101,1.8089,1.8054,1.8053,1.8037,1.8031,1.8026,1.8022,1.8003,1.7995,1.8075,1.8075,1.8075,0,0,1.8131,1.8134,1.8124,1.8115,1.8114,1.8099,1.8129,1.8112,1.8101,1.8125,1.8101,1.8102,1.8097,1.8066,1.8052,1.8064,1.8,1.8022,1.8018,1.8016,1.7999,1.7991,1.7984,1.8073,1.8073,1.8074,0,0,1.8079,1.8081,1.8059,1.8057,1.8056,1.8063,1.8058,1.806,1.8062,1.8038,1.8056,1.8042,1.8019,1.8015,1.801,1.7958,1.7971,1.7954,1.7923,1.7904,1.7898,1.7892,1.7873,1.7867,1.795,1.7949,1.7949,0,1.8049,1.8029,1.8045,1.8027,1.8023,1.8046,1.8023,1.8021,1.8014,1.801,1.8024,1.7996,1.7994,1.7963,1.7951,1.7946,1.7939,1.7953,1.7898,1.7892,1.7887,1.787,1.7862,1.7947,1.7948,1.7948,1.7948,0,1.7992,1.7978,1.796,1.7956,1.7949,1.7928,1.794,1.7931,1.7942,1.7946,1.7922,1.7921,1.7909,1.7903,1.7912,1.7873,1.788,1.7896,1.792,1.7877,1.7861,1.7854,1.7944,1.7945,1.7946,1.7946,0,0,1.7915,1.7922,1.7915,1.7913,1.7914,1.7903,1.7883,1.7874,1.7866,1.7861,1.7844,1.7825,1.784,1.7834,1.7843,1.7827,1.7786,1.7844,1.7844,1.7833,1.7742,1.7729,1.7721,1.7795,1.7794,1.7793,1.7742,0,1.7865,1.7834,1.7848,1.7814,1.7801,1.7824,1.7807,1.7805,1.7809,1.7798,1.7802,1.7788,1.7809,1.7806,1.7791,1.7794,1.7767,1.7798,1.7778,1.7777,1.7778,1.7713,1.7699,1.7652,1.7736,1.7734,1.7734,0,1.7802,1.7796,1.7762,1.7766,1.7761,1.7746,1.7739,1.7728,1.7726,1.773,1.7724,1.7737,1.7717,1.7742,1.7715,1.7735,1.7728,1.7728,1.7727,1.7724,1.7752,1.7708,1.7637,1.7629,1.7724,1.7724,1.7725,0,1.7749,1.7733,1.7711,1.7709,1.7713,1.7702,1.7703,1.7702,1.7696,1.7689,1.7685,1.7675,1.7669,1.7661,1.767,1.7688,1.7641,1.7667,1.7643,1.7642,1.7631,1.7631,1.7556,1.7627,1.7628,1.7628,1.7628,0,1.769,1.7668,1.7688,1.7674,1.765,1.7666,1.7641,1.7644,1.7644,1.763,1.7648,1.7635,1.7649,1.7636,1.7643,1.7619,1.7616,1.7618,1.762,1.7616,1.7615,1.7611,1.7614,1.7626,1.7626,1.7627,1.7627,0,1.7627,1.7639,1.7616,1.7623,1.7624,1.7606,1.7611,1.7597,1.7604,1.7586,1.7583,1.7592,1.7578,1.7587,1.7573,1.7578,1.7545,1.7552,1.7547,1.7548,1.7523,1.7525,1.7442,1.7432,1.751,1.7509,1.7509,0,1.7589,1.7573,1.7578,1.7571,1.7571,1.756,1.7554,1.7569,1.7562,1.7559,1.7546,1.7534,1.7526,1.7502,1.7506,1.7495,1.7502,1.7473,1.75,1.7496,1.75,1.7501,1.7499,1.7467,1.7467,1.7466,1.7465,0,1.7519,1.7526,1.7518,1.7512,1.7505,1.75,1.7497,1.749,1.7506,1.7496,1.7484,1.7477,1.7463,1.7451,1.7442,1.7441,1.7455,1.7457,1.7451,1.7446,1.7443,1.7444,1.7531,1.7459,1.7459,1.746,1.746,1.746,1.7466,1.7453,1.7456,1.7446,1.7446,1.7442,1.7431,1.7436,1.7427,1.7418,1.7427,1.7411,1.741,1.74,1.7397,1.7384,1.7396,1.7387,1.7384,1.7381,1.7378,1.7446,1.7383,1.7383,1.7383,1.7383,1.7383,0,1.7397,1.74,1.7392,1.7388,1.738,1.7396,1.7394,1.7385,1.7372,1.737,1.7362,1.7347,1.7336,1.734,1.7329,1.7318,1.7324,1.7315,1.7315,1.7314,1.7369,1.7375,1.731,1.731,1.731,1.731,1.731,1.731,1.7361,1.7339,1.7347,1.7326,1.7328,1.7315,1.7312,1.7309,1.7308,1.7291,1.7282,1.7286,1.7286,1.7276,1.7266,1.7267,1.7262,1.725,1.7253,1.7303,1.7311,1.7318,1.7324,1.7249,1.7249,1.72,1.72,1.72]}]]